RH
89 89 90 87 88 94 97 97 98 98 99 99 95 92 84 76 82 81 75 78 74 70 69 69 70 69 72 73 76 84 85 85 85 86 92 85 78 80 79 81 83 83 77 73 76 80 82 80 76 71 68 67 66 66 66 61 56 56 58 58 52 44 41 41 40 38 38 40 44 46 48 52 60 65 66 67 66 67 69 70 71 69 68 66 66 65 65 66 68 71 72 74 77 77 77 74 72
88 91 93 94 94 95 97 97 97 99 96 96 90 81 77 75 80 79 74 72 66 65 68 69 67 69 70 67 68 76 86 92 87 81 87 86 83 84 79 79 80 81 77 72 76 80 81 79 76 74 70 66 63 65 65 64 61 61 63 60 51 45 42 40 38 38 41 45 48 50 55 60 65 67 67 67 66 67 69 70 70 70 69 66 63 61 63 65 67 69 70 72 76 80 76 72 76
84 88 92 98 100 98 98 97 98 97 93 93 88 76 72 78 78 69 64 62 60 63 68 68 67 70 69 70 73 79 92 96 88 83 93 91 82 84 81 79 80 79 78 77 78 79 79 77 76 75 71 65 61 63 63 65 66 65 65 58 48 42 42 40 38 41 47 51 52 56 61 64 65 66 66 66 67 67 68 68 69 69 68 65 61 59 60 62 65 67 70 72 74 79 73 71 80
81 87 91 96 99 99 100 99 99 97 93 93 86 76 71 70 66 59 56 57 61 65 67 67 70 72 71 78 81 84 96 99 92 86 93 91 75 77 80 80 81 78 80 81 78 77 78 76 76 75 72 66 61 62 63 67 68 68 67 57 46 43 44 42 43 49 56 57 57 60 62 63 64 65 65 65 66 66 67 67 68 67 65 62 60 58 58 59 61 64 69 72 73 75 71 73 82
80 90 95 95 97 96 96 97 98 94 89 89 81 71 65 59 59 58 56 60 63 64 65 66 74 75 72 81 83 87 98 99 97 89 85 84 74 73 78 80 79 79 81 80 78 77 76 76 76 75 73 68 64 62 64 68 69 69 66 55 47 45 46 47 51 58 62 60 60 62 63 63 63 63 64 65 65 63 66 68 68 66 62 59 56 55 56 57 58 61 66 71 72 72 71 73 80
81 94 99 96 95 92 95 96 96 93 77 75 78 67 57 55 58 59 57 59 59 61 64 66 74 76 80 88 86 89 95 92 91 87 78 77 75 73 76 78 77 78 78 79 78 76 75 76 76 75 72 69 66 64 64 67 68 66 60 53 49 46 48 50 55 60 61 60 60 61 63 63 62 62 62 65 64 60 63 67 67 65 62 57 53 53 53 55 57 60 64 68 71 71 71 73 78
75 91 96 95 94 91 99 98 95 93 73 62 69 60 49 54 56 57 56 57 59 61 63 67 70 74 86 89 88 92 91 86 80 79 75 73 75 74 76 76 77 77 77 79 77 75 76 76 76 75 71 69 66 65 66 68 66 61 57 54 51 48 49 52 55 58 59 60 61 61 62 62 61 60 61 64 62 57 61 64 65 65 60 55 52 51 51 52 54 59 63 66 69 72 72 74 78
71 85 90 93 94 92 99 101 93 87 72 57 56 50 45 51 53 55 57 59 63 64 65 69 67 75 90 85 91 98 89 82 73 73 74 71 74 75 77 74 76 79 79 78 75 76 78 77 77 75 72 69 66 64 66 67 63 58 57 56 53 51 50 51 56 58 58 60 61 61 62 63 63 60 60 63 59 56 60 63 64 63 57 52 50 50 51 52 54 58 63 65 66 70 73 74 76
74 85 90 93 94 93 97 96 86 75 68 58 51 46 43 49 52 54 57 59 62 64 68 68 64 78 92 89 97 97 84 80 73 74 73 71 73 76 78 74 74 77 78 78 75 77 79 78 76 75 73 70 66 62 64 64 59 56 57 56 54 53 51 51 54 57 58 61 61 62 64 64 64 61 60 61 55 55 60 61 62 62 54 49 49 52 55 56 58 60 63 64 63 66 69 71 70
80 88 90 90 92 95 95 88 78 69 61 55 52 45 44 50 52 54 57 61 62 66 69 67 71 82 91 94 100 92 81 80 75 76 73 71 73 76 79 76 72 72 75 76 74 74 75 76 75 75 74 72 68 63 63 60 55 54 54 55 54 51 51 52 52 55 58 59 61 63 65 67 65 59 59 58 52 55 59 59 62 61 54 49 50 55 58 60 62 63 64 63 64 65 65 66 65
88 90 87 91 96 96 93 84 72 64 53 47 49 44 45 50 52 55 59 63 63 69 72 71 82 88 89 94 100 93 80 76 72 72 73 72 72 73 77 76 73 70 71 72 68 69 74 75 73 73 75 74 71 69 66 60 53 52 53 53 52 49 48 52 51 54 58 59 60 62 66 68 65 58 59 56 51 57 58 59 62 61 55 51 54 58 60 61 63 64 65 63 64 65 65 67 67
93 93 89 95 99 92 85 78 67 59 51 45 43 41 47 50 54 59 61 65 66 74 74 72 83 84 88 96 100 94 80 73 68 67 70 71 71 72 74 75 74 71 70 69 65 65 71 75 73 74 76 75 73 72 68 63 56 52 52 51 51 48 49 53 51 55 59 60 61 63 65 66 61 57 58 54 52 58 58 60 64 61 55 53 57 61 62 62 62 64 65 64 64 64 66 69 71
92 90 87 92 93 88 79 73 69 58 45 41 40 42 48 50 55 59 62 67 68 73 72 71 76 77 90 97 99 96 81 73 67 66 69 70 71 71 73 74 74 73 71 69 67 64 64 69 74 77 76 75 74 72 70 66 62 57 56 54 53 52 53 55 54 58 62 62 63 64 65 62 55 54 57 52 53 59 58 61 64 60 55 54 58 61 64 64 64 65 66 66 65 65 66 70 73
86 81 81 87 84 79 71 66 67 53 37 37 41 44 49 51 55 60 64 70 69 68 68 71 70 76 95 99 100 98 84 77 70 68 70 71 73 73 73 74 74 74 72 71 70 66 61 63 72 78 78 76 75 74 72 71 68 65 63 60 59 58 58 59 60 63 64 64 66 66 65 58 50 52 55 51 55 60 59 61 64 60 55 54 56 58 61 66 67 69 72 73 72 70 69 72 73
83 75 69 78 76 66 61 61 56 42 32 38 44 45 49 53 57 62 63 66 68 65 66 73 68 71 89 93 96 96 86 79 74 72 73 74 75 75 75 75 75 73 72 72 72 70 67 67 70 77 80 78 76 74 74 75 72 68 65 63 63 63 62 62 66 67 66 66 69 68 64 56 49 51 53 52 57 63 61 62 64 63 56 53 54 55 59 66 70 73 77 80 80 75 71 72 72
83 76 65 70 72 63 58 55 42 31 31 39 45 46 52 57 58 62 59 58 66 69 66 72 66 58 73 83 83 85 82 79 77 77 79 81 79 78 79 76 76 74 73 74 74 74 73 71 71 76 81 79 76 73 73 76 75 69 66 65 65 66 64 65 67 68 68 68 69 70 63 54 49 51 53 53 58 61 60 61 64 65 59 53 53 53 59 69 74 76 78 81 83 78 75 75 75
81 81 76 75 71 63 59 51 35 26 30 39 45 48 55 57 55 58 59 57 65 70 65 67 63 54 67 76 73 78 79 77 81 82 86 88 82 81 83 79 78 77 77 76 75 75 74 73 74 76 79 79 75 72 73 75 76 72 67 67 67 67 66 67 67 67 69 68 70 68 58 49 47 50 52 54 59 60 59 60 63 66 62 55 54 55 62 73 78 79 80 81 83 82 79 77 76
76 81 83 79 70 60 53 46 34 25 30 41 46 49 53 54 57 59 62 63 64 67 64 65 65 63 71 72 71 78 76 77 83 84 90 91 84 83 83 80 79 79 80 80 78 77 77 76 76 77 77 76 72 70 71 71 73 72 67 67 68 67 67 67 68 68 69 69 67 60 49 46 48 50 53 57 63 62 60 63 67 69 65 60 59 64 71 76 78 80 81 82 82 81 80 74 70
69 71 75 70 58 50 42 38 33 25 30 42 44 47 49 52 59 60 62 67 65 66 66 66 70 73 76 76 75 78 77 84 90 89 92 91 87 84 79 77 79 82 83 83 82 81 80 78 77 76 73 71 67 68 70 68 68 68 67 67 68 68 67 68 68 69 69 65 58 49 45 48 49 54 60 65 66 64 64 70 75 73 67 67 69 75 81 79 78 78 78 80 80 77 76 69 64
62 63 69 59 45 42 37 34 31 25 29 40 42 44 49 52 56 57 60 64 63 65 68 68 74 78 80 82 78 80 87 94 97 96 96 92 88 82 73 70 73 79 81 80 82 82 80 78 73 68 66 63 62 63 64 64 64 66 66 66 66 65 65 65 65 65 62 55 48 45 48 52 54 61 67 67 64 62 69 77 79 73 69 72 77 81 84 83 79 76 73 75 77 75 72 66 63
54 59 63 51 40 41 38 34 33 27 28 37 41 45 52 52 52 55 58 65 67 64 64 62 68 76 80 83 81 86 95 97 98 98 97 93 87 82 70 64 66 69 71 73 75 74 72 69 63 61 60 58 56 55 56 58 60 62 63 64 62 60 58 58 59 56 50 46 45 48 53 58 59 63 67 66 62 62 71 80 81 75 71 74 79 82 84 84 82 78 72 69 70 72 71 66 65
46 50 52 44 40 41 36 33 32 26 29 37 41 46 51 50 50 53 57 65 64 58 60 58 58 63 68 77 82 90 96 96 98 98 97 90 81 78 68 61 63 64 65 66 66 64 62 60 58 57 56 54 53 52 55 57 59 60 59 59 58 55 52 51 50 47 44 45 49 53 58 61 57 60 65 65 65 66 71 78 80 78 75 78 81 83 85 85 81 77 72 67 65 68 68 65 66
45 43 40 39 39 39 36 33 29 25 30 37 40 44 46 46 47 52 55 54 48 48 57 59 57 55 57 71 81 88 94 95 96 96 93 83 72 69 64 60 61 61 61 60 59 59 58 59 58 57 54 53 54 56 59 61 61 60 56 56 55 52 49 47 45 43 45 48 50 55 60 61 56 60 65 65 69 71 73 77 79 80 80 82 83 84 84 82 77 72 70 68 66 65 63 63 67
44 43 38 36 36 36 35 34 31 27 29 34 38 41 43 44 45 50 52 45 43 50 56 58 61 63 65 73 78 83 91 91 92 92 84 74 65 60 59 60 59 59 58 57 56 57 57 58 58 58 55 55 56 59 62 61 61 60 57 55 53 51 48 46 45 46 48 49 50 54 61 64 60 65 68 68 74 75 76 78 79 83 83 84 84 83 82 79 75 71 71 71 69 66 61 62 68
41 41 37 35 34 32 31 31 31 29 25 29 36 40 41 40 41 47 46 44 49 54 57 60 67 74 76 78 79 84 88 88 89 89 84 79 75 68 62 59 59 58 55 54 55 55 56 57 58 57 56 55 56 58 59 59 58 58 57 54 51 50 48 45 47 50 50 49 51 56 62 65 63 66 70 72 77 77 78 79 80 83 82 84 85 82 81 78 74 72 74 72 72 72 63 63 71
38 36 34 32 31 30 30 28 29 28 23 24 33 38 39 37 40 44 44 47 53 56 60 64 70 77 81 82 82 83 83 84 85 85 85 87 85 79 67 56 55 55 52 53 54 55 57 58 58 56 54 55 56 58 57 56 56 56 54 51 49 49 46 46 49 52 53 53 55 59 63 65 65 69 72 75 77 77 79 80 81 81 80 81 82 82 81 78 74 73 75 72 74 77 67 65 72
32 31 31 31 31 29 28 28 26 26 23 21 28 35 34 34 39 46 50 52 55 60 64 67 71 77 81 84 85 84 82 81 80 82 87 91 90 84 70 56 52 51 51 54 54 55 58 58 57 55 55 56 56 57 55 54 54 52 50 48 48 47 45 47 50 53 56 57 60 62 64 66 68 72 75 76 77 78 80 80 79 78 76 78 79 80 79 77 76 74 77 76 78 79 68 66 72
30 28 28 28 29 29 28 28 26 24 21 19 23 27 29 34 37 45 55 55 55 61 67 69 72 75 78 82 85 86 86 84 82 83 86 88 86 81 71 58 52 50 50 52 54 55 57 57 55 54 55 57 57 56 55 53 51 50 48 47 47 46 46 48 51 54 57 59 62 64 64 66 69 73 76 77 78 80 80 79 78 76 76 76 76 77 76 76 77 77 80 80 80 79 68 65 70
24 22 23 22 23 28 29 28 27 23 20 16 18 24 30 36 36 42 55 57 57 63 69 72 72 74 77 79 82 85 86 86 86 85 81 79 78 74 68 59 53 51 50 51 53 55 56 55 54 53 54 55 55 54 55 53 49 49 49 47 48 50 51 52 52 53 56 59 63 65 64 64 67 70 73 76 79 82 81 80 75 73 76 77 77 78 77 77 78 79 83 82 81 80 71 67 68
18 16 17 16 16 21 23 25 26 24 20 14 16 26 32 37 39 46 57 59 61 66 70 72 73 74 76 77 81 83 84 85 85 83 79 77 75 68 62 58 54 52 51 52 54 54 55 55 52 51 52 53 53 54 57 55 50 49 51 50 51 54 55 55 55 53 55 62 67 68 65 64 66 67 70 74 78 81 81 78 73 71 74 77 79 80 81 82 82 83 87 85 82 81 75 71 70
19 16 14 15 16 16 16 21 26 25 21 14 16 26 28 34 47 53 57 59 62 67 70 71 73 74 76 77 78 81 82 82 82 81 78 76 73 66 59 55 54 53 53 53 53 54 56 55 52 50 50 51 53 55 58 58 53 49 52 55 55 57 58 57 58 58 59 67 71 70 68 68 72 74 71 70 73 77 77 75 74 74 74 75 78 81 83 82 85 88 90 89 85 83 79 75 73
16 16 18 18 18 18 13 15 24 25 21 15 16 26 25 33 52 55 56 59 60 65 68 70 72 73 75 75 77 79 81 81 81 80 78 76 73 66 59 55 55 55 54 53 53 55 57 57 53 48 49 51 52 55 59 60 58 52 52 58 60 60 62 60 61 65 67 71 72 73 73 74 79 82 76 71 72 76 77 75 76 76 73 73 76 79 82 83 87 90 90 91 89 88 83 77 76
17 16 20 19 17 19 15 13 20 22 21 16 17 28 31 40 55 55 56 59 59 64 66 68 70 71 73 74 75 78 79 80 81 80 79 78 75 68 61 57 55 54 52 50 51 54 56 56 53 50 49 50 51 55 60 61 61 58 52 57 64 64 64 63 63 67 69 71 72 73 76 78 80 82 81 79 80 81 80 77 75 74 72 73 75 77 80 84 90 91 91 92 91 91 87 82 79
23 19 19 18 16 18 17 14 16 20 21 17 19 28 32 45 56 54 56 58 58 63 64 66 68 69 71 73 74 76 77 78 78 78 78 77 76 70 64 60 56 54 51 48 48 49 51 52 51 50 51 51 51 54 59 61 62 62 56 56 64 67 64 63 64 65 66 68 69 69 74 79 80 82 84 85 87 88 85 80 75 72 73 74 74 74 77 83 89 91 92 93 92 92 89 86 84
24 22 19 19 17 17 17 14 15 21 21 17 22 27 31 48 57 54 56 56 58 61 62 65 66 68 70 71 73 75 76 77 76 76 75 74 74 71 68 65 61 59 54 50 48 48 50 51 50 50 52 54 55 55 57 60 62 64 61 60 67 70 66 63 63 62 61 63 63 64 74 81 82 84 86 88 90 90 87 81 76 72 73 73 73 75 78 84 88 89 90 92 93 92 90 89 84
17 19 18 18 18 17 16 14 13 19 23 20 23 26 34 53 60 54 56 56 57 60 61 63 64 66 68 70 72 73 75 75 74 74 73 73 72 70 69 67 66 64 59 54 52 52 53 54 53 52 53 55 57 58 57 59 62 63 65 66 69 69 67 65 64 62 60 61 60 61 71 80 84 86 88 90 90 89 85 79 75 72 71 72 74 77 82 85 85 86 90 92 93 93 91 87 81
13 14 15 16 16 16 14 13 12 15 23 24 22 26 36 53 59 54 54 55 56 59 60 62 63 64 66 68 71 72 73 72 71 72 73 72 71 69 68 68 69 69 66 62 57 56 56 56 55 53 53 54 57 58 56 56 58 60 62 63 62 61 64 66 64 62 60 62 63 64 69 78 85 88 90 91 90 89 85 78 73 71 70 71 74 78 83 85 84 85 90 92 92 91 89 86 83
13 13 14 14 15 14 12 12 12 13 23 26 24 28 38 51 56 53 53 55 56 57 59 61 61 63 65 66 69 70 69 69 71 71 71 71 71 70 69 68 69 69 69 67 63 60 59 59 57 54 52 51 52 54 53 52 52 54 54 55 56 55 58 61 60 58 58 63 69 71 74 78 85 89 90 90 90 91 87 80 76 72 71 72 75 80 83 83 83 83 86 89 88 87 87 85 76
13 13 14 14 14 13 12 12 12 12 21 29 29 31 37 47 52 51 52 53 53 54 56 59 60 61 63 64 66 68 68 69 70 68 67 68 69 68 68 67 66 65 65 65 65 64 63 62 61 57 53 49 48 51 51 50 49 50 52 52 52 53 54 56 57 58 60 64 69 74 78 79 85 89 89 90 89 90 88 83 78 74 73 74 76 80 82 82 81 80 83 87 87 85 80 66 53
15 14 15 15 13 13 14 14 13 12 18 27 30 31 35 44 52 52 49 49 49 51 53 55 58 59 60 62 63 65 66 67 66 65 63 64 65 66 66 64 64 63 63 64 64 65 64 64 61 57 53 49 47 48 50 50 49 50 53 53 52 53 53 56 62 65 66 68 70 73 76 77 83 86 86 87 87 88 86 81 77 75 75 75 77 78 79 79 77 78 81 83 86 81 62 45 44
19 16 15 15 13 13 15 14 14 14 16 23 28 33 36 42 52 55 49 47 47 47 51 53 55 57 57 59 60 61 63 63 63 62 60 61 62 62 62 62 62 63 63 62 61 60 60 61 61 57 53 51 48 47 50 52 52 52 56 61 64 65 64 65 68 68 67 70 70 69 69 70 76 80 81 81 84 85 84 80 77 78 79 77 75 74 75 76 73 76 78 80 82 68 47 42 50
21 18 15 14 13 13 14 13 15 16 19 25 27 35 43 42 47 52 49 48 48 45 48 51 51 53 55 56 57 58 60 60 59 54 51 54 57 59 60 61 62 62 61 58 57 56 56 59 61 60 57 54 52 51 52 53 54 54 56 62 66 70 69 63 59 59 61 63 65 67 66 64 66 70 73 75 80 84 84 83 81 82 82 77 73 72 72 71 68 71 71 70 68 53 44 52 56
23 18 14 14 13 13 14 13 15 20 24 26 23 33 47 42 38 43 45 48 48 45 46 48 48 50 51 52 54 55 57 59 58 53 49 49 52 56 59 59 60 60 57 55 55 56 57 59 60 61 60 58 55 54 56 57 57 55 54 54 54 56 56 50 47 51 54 57 62 66 66 62 59 60 64 68 76 81 85 87 85 85 83 75 71 70 67 64 63 66 62 55 50 44 48 58 59
21 16 12 13 13 13 13 12 15 19 21 22 21 27 38 42 37 32 36 45 47 44 45 45 45 47 49 49 50 52 53 54 55 55 52 49 50 53 54 55 55 54 54 55 55 56 57 58 58 59 60 60 58 57 57 60 63 62 58 54 51 49 45 42 43 47 52 59 64 64 63 60 57 56 58 66 76 82 87 89 87 85 80 75 70 66 62 59 59 61 55 44 40 44 51 59 62
18 13 11 12 12 12 12 13 15 16 17 19 22 23 33 53 55 34 28 40 45 42 41 42 42 43 45 47 47 49 50 50 51 51 50 47 47 48 49 49 49 50 52 54 53 53 55 57 57 57 59 61 62 61 60 59 64 68 66 62 57 52 46 42 42 45 50 56 60 60 58 56 55 55 58 69 80 86 90 90 88 83 78 75 69 61 57 55 57 57 49 40 38 45 52 56 62
15 12 12 11 10 11 12 15 16 17 21 21 20 21 26 47 59 44 32 35 38 38 36 37 39 39 41 43 44 46 47 48 48 48 46 43 41 41 42 44 46 49 51 51 51 52 55 57 58 58 58 60 62 64 64 63 65 69 71 69 64 60 56 51 48 49 50 51 53 53 53 51 53 55 59 72 83 88 91 90 87 81 77 74 66 59 54 49 53 52 46 44 44 46 51 55 61
13 12 13 12 11 13 15 20 21 19 23 21 17 19 20 27 41 43 36 30 28 30 31 32 34 35 38 40 41 44 46 47 47 47 46 43 40 39 41 44 46 48 51 52 52 54 56 58 58 59 58 58 60 63 64 65 67 70 71 69 68 66 64 62 58 54 51 51 51 49 48 51 55 58 63 75 84 88 89 87 84 79 75 71 62 56 49 43 47 46 43 52 56 51 53 56 61
13 12 12 15 16 15 15 20 22 19 20 22 17 18 20 21 30 38 33 25 22 23 25 28 30 32 34 36 38 40 42 44 45 46 46 45 44 45 47 48 48 49 52 54 55 56 57 58 58 58 59 59 59 60 62 64 66 69 70 69 68 67 67 68 63 56 52 50 49 47 47 52 59 62 67 75 82 85 84 81 78 75 71 65 58 51 42 39 43 41 40 52 59 57 58 58 60
14 13 15 19 19 18 18 19 20 22 26 29 22 16 21 23 25 31 31 26 22 20 20 22 24 27 29 32 35 37 39 42 44 45 45 45 46 47 48 48 49 51 52 53 54 56 57 58 57 58 58 58 59 59 60 62 64 65 67 67 67 67 68 68 64 57 51 48 47 46 45 50 57 61 62 65 70 75 76 73 68 64 61 58 53 45 37 38 42 40 41 48 52 55 58 57 56
14 14 17 19 19 21 23 22 22 23 26 29 22 20 28 28 25 27 28 26 22 19 19 18 20 23 25 28 31 33 36 38 41 43 44 44 44 44 45 45 46 48 49 50 52 54 56 57 57 57 57 57 58 59 58 60 62 63 65 66 65 65 66 67 65 60 53 47 45 45 44 47 52 54 53 52 56 63 66 64 57 53 53 53 50 41 36 38 40 39 43 45 44 50 57 56 51
12 13 14 15 21 26 25 22 23 23 25 27 24 27 33 29 27 26 22 24 23 19 19 17 18 20 21 25 28 30 32 34 37 40 41 42 41 42 43 43 44 45 46 48 49 52 54 55 57 57 57 57 57 58 58 58 60 62 64 66 65 65 63 62 62 62 58 51 44 43 45 48 50 51 50 49 52 57 60 59 52 48 50 53 50 43 37 37 38 39 44 45 44 50 58 58 52
11 11 12 13 19 24 22 26 31 27 25 26 27 36 39 32 29 26 20 22 23 21 21 19 19 20 19 22 26 28 30 31 33 37 39 40 40 40 41 42 43 44 45 47 48 50 52 53 55 56 56 57 57 57 57 57 57 59 63 65 65 65 63 61 59 60 62 58 49 43 45 49 50 51 52 52 53 55 58 57 51 46 48 53 54 48 40 37 37 37 41 44 43 46 51 53 52
14 11 13 13 12 12 15 24 27 21 19 24 27 31 32 27 24 24 22 23 25 23 23 22 21 21 20 22 24 26 28 28 30 33 35 36 38 39 40 41 41 43 45 47 47 47 48 49 52 54 57 58 57 56 56 55 56 58 60 63 65 65 64 62 58 55 56 59 56 47 46 50 52 53 54 54 55 56 57 57 52 49 48 52 56 53 43 38 38 36 37 38 37 39 42 46 48
13 11 10 10 9 9 16 19 15 14 16 23 26 23 22 26 30 31 28 25 26 26 25 23 22 24 23 22 23 24 25 26 27 29 31 32 34 37 38 39 39 40 41 41 42 44 46 48 48 50 55 57 56 56 55 55 55 56 58 60 62 63 62 61 59 54 51 55 57 51 47 51 54 56 56 56 57 57 57 57 56 53 50 51 56 54 44 39 38 35 32 32 34 37 39 39 40
9 11 9 10 13 12 18 21 15 15 14 16 26 27 24 29 33 31 28 27 27 27 27 26 23 25 26 24 23 23 23 26 26 27 29 29 31 34 35 36 37 38 38 37 40 44 47 48 48 49 50 50 51 52 53 54 54 55 55 56 58 59 59 60 59 56 50 49 52 51 48 50 54 57 58 58 58 57 57 57 56 55 52 52 56 55 47 41 38 34 30 28 32 38 40 37 34
9 10 7 10 14 11 14 19 17 18 18 16 20 22 22 28 30 25 24 28 27 25 27 28 25 25 25 25 25 24 23 25 25 26 27 27 28 30 31 32 33 35 36 37 41 46 48 49 50 51 51 51 52 53 53 55 55 56 56 56 57 57 58 59 59 56 49 42 45 49 49 49 52 55 57 58 58 57 56 56 55 54 53 53 57 59 52 45 40 35 30 28 31 37 38 34 31
11 11 9 8 10 10 11 14 15 19 28 29 22 15 19 31 33 25 22 26 26 25 26 25 24 24 23 24 25 24 24 24 24 25 26 26 26 27 29 29 29 32 35 38 43 46 47 50 51 52 54 55 55 55 55 55 54 56 57 56 56 57 59 61 61 59 50 39 39 45 47 49 51 52 55 57 57 57 55 55 54 53 51 51 56 60 56 50 44 39 35 30 32 35 33 28 28
12 11 11 8 9 13 12 13 16 17 24 33 27 13 14 28 31 24 22 25 24 24 24 23 24 23 22 23 23 24 25 24 24 24 24 25 25 26 27 28 30 34 37 40 43 45 47 50 51 52 55 56 55 55 55 54 54 54 56 56 56 57 59 61 62 61 52 38 35 40 45 48 50 50 52 54 55 55 54 54 55 53 51 50 53 59 60 55 48 44 40 33 28 27 24 22 24
Wind_Speed
11 13 14 13 13 13 9 6 1 0 1 2 2 1 2 1 1 1 1 3 1 5 8 5 15 16 6 4 7 8 7 4 3 2 3 10 23 25 25 26 27 29 31 31 29 28 28 28 26 26 25 25 24 24 24 25 26 26 26 26 26 26 25 24 22 20 19 18 17 17 16 15 15 14 13 13 12 12 12 12 12 12 11 11 10 9 9 8 8 8 9 9 9 9 9 8 8
11 13 14 11 11 9 5 4 0 1 0 2 2 2 2 2 1 3 3 4 1 7 12 11 18 12 6 10 11 9 6 3 2 8 13 22 28 25 26 27 28 31 31 31 29 28 28 27 27 26 25 25 25 25 25 26 26 26 26 25 26 25 24 22 20 19 18 17 17 16 15 14 14 13 13 12 12 12 11 11 11 11 11 10 10 9 9 8 7 7 8 8 8 9 8 7 7
10 12 13 12 9 4 2 3 1 0 0 2 3 2 2 2 3 5 5 5 4 13 15 15 15 8 9 10 6 4 3 3 8 19 21 26 30 28 28 27 29 31 31 31 29 28 28 28 27 26 26 25 25 25 26 26 26 25 25 25 25 24 22 20 18 17 17 17 16 16 15 14 13 12 12 11 11 11 11 11 10 10 9 9 9 9 9 8 8 7 7 7 8 8 8 7 7
10 9 10 11 7 2 1 1 2 2 0 2 3 2 3 2 3 4 3 5 12 18 17 16 9 5 7 6 5 5 5 6 15 24 25 28 31 31 30 29 30 31 32 31 30 29 28 28 27 26 26 25 25 25 26 26 25 24 23 24 24 23 21 18 17 16 16 16 15 15 14 13 12 12 11 10 10 10 10 10 9 9 8 8 9 9 9 9 8 8 7 8 8 8 7 6 8
10 9 7 7 4 0 1 0 1 2 2 3 1 3 4 2 3 2 7 13 16 16 16 14 6 5 8 6 4 3 7 12 17 23 29 31 30 32 31 31 32 32 32 31 31 30 29 28 27 27 26 26 25 25 25 25 24 23 23 23 23 21 19 17 15 15 15 15 14 14 13 12 11 11 10 9 9 9 9 9 9 9 9 9 9 9 9 9 9 9 8 8 9 9 7 7 8
12 11 7 6 3 2 1 2 1 2 4 4 2 3 5 4 6 9 13 14 13 13 13 11 9 9 8 6 3 6 11 14 20 26 31 32 31 32 31 32 33 33 32 31 30 29 29 28 27 27 26 26 25 25 25 24 23 23 22 22 21 19 18 16 14 14 14 13 13 13 12 11 11 10 9 9 8 9 9 9 9 10 10 10 10 10 10 10 10 9 9 9 9 9 8 7 7
13 11 7 4 3 2 1 2 3 3 4 5 3 2 6 9 11 14 13 12 10 10 11 12 16 13 6 5 7 8 5 11 25 29 31 33 32 32 31 33 33 33 32 31 30 29 28 27 27 27 26 25 25 24 24 23 22 22 21 20 19 18 17 15 14 13 12 12 12 12 11 10 10 9 8 8 7 9 9 10 10 11 11 10 10 10 10 10 10 10 10 9 9 10 9 7 7
12 7 5 2 1 1 1 2 4 3 3 4 4 2 7 15 16 14 10 10 9 9 13 15 17 11 4 6 8 5 5 14 26 28 31 32 32 32 31 33 33 33 32 31 31 29 28 27 27 26 26 25 24 24 23 23 22 22 21 19 18 17 16 14 13 13 12 11 11 11 10 9 9 8 8 7 7 8 10 10 11 12 12 11 11 11 11 11 11 11 10 10 10 10 9 8 7
13 5 2 2 1 1 2 2 4 3 4 4 4 4 10 20 18 13 10 9 11 12 15 15 13 10 6 10 9 8 11 17 25 28 31 32 32 32 32 33 33 34 32 31 31 30 29 27 27 25 26 25 24 24 23 23 22 22 20 19 18 16 15 14 13 12 11 11 10 10 10 9 8 8 8 7 7 8 9 10 11 12 12 12 12 12 12 12 11 11 11 11 11 10 10 9 8
13 7 1 1 1 2 3 3 4 3 4 4 4 7 14 20 16 14 12 10 14 14 14 14 12 13 12 11 8 9 13 18 26 29 31 32 32 32 32 31 32 33 33 32 31 31 29 27 26 25 25 24 24 23 22 22 21 21 19 18 17 15 14 13 13 12 11 10 10 10 10 9 8 8 8 7 7 8 9 10 11 11 12 12 13 13 13 13 12 11 10 10 10 10 10 9 9
9 6 3 1 1 1 3 3 4 3 4 3 3 11 20 22 16 13 13 13 15 13 16 14 11 18 15 8 7 8 15 21 28 31 31 32 32 31 31 30 30 32 32 32 31 31 29 27 26 24 24 23 22 22 21 21 21 20 19 18 16 15 13 12 12 12 12 10 10 10 9 9 7 8 8 7 7 8 9 9 10 10 11 12 13 13 13 13 13 12 11 10 10 9 9 8 9
5 3 3 1 2 3 4 3 4 5 4 3 3 14 26 25 16 12 13 14 14 12 15 16 15 20 12 4 9 12 19 25 29 31 31 32 31 31 30 30 30 30 31 31 30 29 29 28 26 24 24 23 22 21 21 20 20 20 19 18 16 15 13 12 12 13 12 11 10 9 9 8 7 7 7 7 7 8 8 9 9 10 10 12 13 14 13 13 13 12 11 10 9 9 8 8 8
6 3 4 1 3 2 3 3 4 4 3 3 4 16 30 24 15 17 16 13 16 13 11 17 24 19 9 7 14 18 24 27 30 31 31 31 31 31 30 30 30 30 30 30 29 28 28 28 26 25 24 23 22 21 20 19 19 19 18 18 16 15 14 13 13 13 12 11 10 9 9 7 6 6 7 7 7 7 8 8 9 9 10 11 12 13 12 11 12 12 12 11 10 9 9 9 9
10 4 4 1 2 2 3 3 4 2 3 2 9 19 26 18 18 24 20 14 12 12 12 20 28 18 11 12 15 23 27 29 31 31 31 30 31 31 30 30 30 31 30 30 29 28 28 27 27 25 24 23 23 21 20 19 18 18 17 17 16 15 15 14 13 13 12 11 10 9 9 7 6 6 7 7 7 7 8 8 8 8 8 10 11 11 10 10 11 11 11 11 10 10 10 9 9
15 5 3 2 2 2 2 3 3 3 3 4 13 20 17 14 24 25 24 19 6 14 17 20 23 12 14 16 17 31 31 31 32 31 31 30 30 30 30 30 30 31 31 31 29 28 28 27 27 25 25 24 23 21 20 19 18 18 17 17 16 16 15 15 14 13 12 11 10 10 9 8 7 7 7 7 7 7 7 7 7 7 7 9 9 9 9 9 9 9 9 10 10 9 9 9 9
18 6 2 3 3 3 3 3 2 3 2 7 17 20 14 12 23 19 22 22 13 20 17 19 18 4 19 21 22 37 32 32 33 31 31 29 30 29 29 30 30 31 31 31 30 29 28 27 27 26 25 24 23 22 20 20 18 18 18 17 16 16 15 15 14 12 12 11 11 10 9 9 8 8 8 8 7 7 7 7 6 6 6 8 8 7 7 8 9 8 7 9 9 8 8 8 9
15 7 1 3 4 3 3 3 2 3 4 10 19 21 15 11 16 12 16 19 23 26 13 18 13 5 23 21 26 39 32 33 33 32 31 28 30 30 30 30 30 31 30 31 30 29 28 27 27 25 26 24 23 22 21 21 20 19 18 17 16 16 16 15 14 13 12 12 11 11 10 10 9 9 9 8 7 7 7 7 6 5 6 8 8 7 7 8 9 8 7 8 8 7 6 7 8
10 4 2 5 4 4 4 5 4 4 6 10 18 23 20 14 14 16 14 14 24 22 12 17 9 8 22 19 30 37 31 35 33 33 33 30 32 31 33 32 32 32 31 30 29 29 28 27 27 26 26 24 23 22 22 22 21 20 19 18 17 17 16 15 15 14 13 13 12 12 11 11 10 9 8 7 7 6 6 6 5 5 6 7 8 8 7 8 8 7 6 6 6 6 6 6 7
10 3 2 6 5 5 5 6 4 5 8 10 17 24 23 19 20 21 13 12 18 14 11 15 12 17 20 22 34 34 34 36 32 34 34 33 33 34 35 35 35 33 32 32 29 29 28 28 27 26 26 24 24 23 23 23 22 22 21 20 19 18 17 16 16 15 15 14 13 12 12 11 10 10 8 7 7 6 6 6 5 5 6 7 8 8 7 7 6 6 6 5 4 5 6 5 6
13 7 3 8 7 6 8 9 5 7 13 11 14 19 18 23 26 21 14 14 14 10 15 17 18 24 25 30 36 34 36 35 33 35 33 34 33 35 37 37 37 35 34 33 31 31 30 29 27 26 26 25 25 24 24 24 23 22 21 21 19 19 18 17 17 16 15 14 13 12 12 11 10 10 8 8 7 6 6 6 6 6 7 7 8 8 7 6 5 5 5 4 4 4 5 6 7
10 10 7 7 4 4 11 10 5 5 18 16 15 15 14 25 26 21 21 14 6 10 24 28 29 32 34 38 37 37 37 35 36 35 34 35 33 35 37 37 37 35 35 33 33 32 31 29 27 27 26 25 25 25 24 24 23 22 22 21 19 19 18 18 17 16 15 15 14 13 12 11 10 10 8 7 7 7 7 7 7 7 7 7 7 7 6 6 5 4 4 5 4 3 3 5 6
5 11 15 12 5 5 14 7 1 7 22 20 15 15 17 24 20 24 28 14 12 23 31 33 35 38 40 42 41 39 38 38 39 36 36 35 33 36 36 37 36 35 35 34 34 32 31 29 27 27 26 26 25 24 24 23 23 22 21 21 19 19 18 17 17 16 16 15 15 14 13 12 11 10 8 7 7 8 8 7 8 8 8 7 7 6 6 5 4 3 3 4 4 2 2 4 5
7 10 13 16 12 11 20 14 2 8 22 18 16 20 23 21 13 27 30 15 22 33 34 32 34 40 42 44 43 41 40 40 40 38 38 36 35 36 37 38 37 37 36 35 34 32 31 29 28 28 27 26 25 25 24 23 22 21 21 20 20 20 19 18 18 17 17 16 15 14 13 12 11 10 9 8 7 8 9 8 8 8 8 8 7 6 5 5 3 1 3 4 3 2 3 4 5
11 10 11 15 16 16 25 25 13 6 20 21 21 21 22 19 12 24 22 11 21 31 33 33 34 40 42 42 44 43 42 41 40 39 38 36 35 35 36 38 37 37 36 35 34 32 31 30 29 28 27 27 26 25 25 23 22 21 21 21 21 20 20 19 18 18 17 16 16 14 13 12 11 10 9 8 7 8 9 8 8 8 8 8 7 6 5 4 2 1 3 4 2 2 4 5 5
11 11 13 13 16 22 27 29 21 8 18 22 21 19 23 26 20 22 17 11 23 31 33 34 36 40 40 42 43 42 42 40 39 39 37 36 34 33 34 36 37 37 36 36 34 33 32 30 30 29 28 27 26 26 25 24 23 22 23 22 22 21 21 20 18 18 17 17 16 14 13 12 11 11 10 8 7 8 9 9 8 7 7 7 7 5 5 4 2 1 1 2 1 2 5 6 6
10 14 16 14 17 24 26 26 21 10 16 18 16 15 21 24 19 13 13 20 28 33 35 36 39 40 39 41 42 42 43 41 40 39 38 36 34 33 33 35 38 37 36 35 34 33 31 30 30 29 29 27 27 26 25 25 24 24 24 23 22 21 21 20 19 19 18 17 15 14 13 12 11 11 10 9 8 9 10 10 9 8 7 7 7 6 5 5 3 2 1 1 1 3 6 7 6
9 15 18 19 22 27 26 24 22 11 17 23 19 13 16 21 16 6 13 28 32 35 37 38 41 40 40 40 41 42 42 42 41 40 38 36 36 35 35 37 38 37 36 35 34 33 31 31 31 30 29 27 27 27 26 25 25 25 24 23 22 21 21 20 20 19 18 17 15 15 14 12 12 11 11 9 8 9 10 10 10 9 8 7 7 6 6 5 4 3 3 2 2 4 8 9 7
14 15 14 18 21 26 26 22 22 11 13 28 24 10 11 17 13 10 23 35 36 39 39 40 42 40 40 40 40 41 41 41 40 40 40 39 39 38 37 38 39 38 37 36 34 33 32 32 31 30 29 28 28 27 26 26 25 24 24 23 22 21 21 21 21 19 19 17 15 15 14 13 13 12 11 10 9 9 9 9 10 9 8 8 7 6 6 5 5 4 4 4 3 4 9 11 8
16 14 9 12 11 15 20 20 23 12 9 24 21 8 7 12 10 17 32 38 39 41 39 40 41 38 39 39 39 40 41 40 39 41 41 41 40 39 39 38 38 38 37 36 34 33 33 31 31 31 30 29 29 27 27 26 25 24 24 24 22 22 21 21 21 20 19 17 15 15 15 14 13 13 12 11 10 10 9 9 9 8 7 8 7 7 7 6 6 5 5 6 5 5 10 12 10
10 8 5 6 5 7 13 16 22 13 9 23 20 5 8 10 10 21 34 39 38 36 36 38 37 37 38 38 38 40 41 41 41 42 41 40 40 39 38 37 37 37 37 37 36 34 33 32 32 31 31 30 29 28 27 26 25 25 25 24 22 22 22 21 21 20 19 17 16 16 15 14 13 13 13 12 11 11 10 10 8 8 8 8 8 8 8 8 7 7 7 7 6 7 10 12 11
5 5 3 3 3 7 9 9 12 10 10 26 20 5 9 8 10 26 36 40 40 34 34 36 36 36 37 37 38 39 41 43 43 42 41 40 39 39 38 37 36 36 37 37 36 35 33 33 33 32 32 31 30 29 28 27 26 25 25 23 23 22 22 22 21 20 19 17 17 16 15 14 13 13 13 13 12 12 11 11 9 9 9 9 10 10 10 9 8 8 9 8 7 8 10 13 12
2 4 4 2 3 7 9 5 8 9 9 24 19 5 7 7 11 28 35 39 39 34 33 35 35 36 37 37 38 39 40 41 41 40 41 40 39 39 38 37 36 36 37 36 36 35 34 34 33 33 32 31 31 30 28 27 26 26 25 23 23 22 22 22 21 20 19 19 18 17 15 14 13 12 13 13 13 12 12 12 11 11 10 10 11 12 12 11 10 10 10 9 9 9 10 13 13
2 3 5 4 4 4 7 6 7 13 8 15 17 5 4 4 12 27 33 36 35 30 32 34 35 35 37 37 37 38 38 38 39 39 40 40 40 39 38 37 36 36 36 35 35 35 35 35 34 33 32 31 31 30 29 27 26 25 25 24 23 23 23 22 21 21 20 20 19 17 16 15 13 12 12 13 12 12 13 13 13 12 12 12 12 13 13 12 12 12 11 10 10 10 11 14 14
3 2 4 4 5 4 5 7 5 9 9 11 12 6 4 5 15 26 30 34 31 28 30 33 34 35 36 37 36 37 38 39 41 41 42 41 41 40 38 37 36 35 35 35 35 35 35 35 34 33 32 31 31 31 29 28 27 25 25 24 23 23 24 23 21 21 21 21 19 18 16 15 14 13 13 13 13 13 14 14 14 13 13 13 14 14 13 13 13 12 12 11 11 10 11 14 15
3 4 4 3 4 5 6 6 5 4 8 11 9 5 5 6 14 24 30 34 31 28 32 34 34 35 35 36 36 38 39 41 45 45 43 43 41 40 38 37 35 35 35 35 35 34 35 34 34 33 33 32 31 31 30 28 27 26 25 25 24 24 24 23 22 22 21 20 19 18 16 15 14 13 13 13 13 13 14 15 14 14 14 14 14 14 14 14 14 13 11 11 10 10 11 14 15
5 5 4 4 5 6 6 6 4 3 6 9 10 7 7 9 14 19 26 32 29 27 29 30 31 33 34 35 37 39 40 43 46 45 43 42 42 40 39 37 35 34 34 35 35 35 35 35 35 34 34 33 32 32 31 30 29 28 27 26 27 27 25 24 23 23 22 21 20 18 17 16 15 14 13 13 12 13 14 14 14 14 14 15 15 14 14 13 13 12 11 10 10 10 11 14 16
7 4 5 6 5 8 7 4 6 4 5 9 11 10 9 14 16 17 25 29 23 22 24 26 30 32 34 35 37 40 42 46 46 44 43 41 41 40 39 38 36 35 34 34 35 36 36 35 36 36 35 34 34 34 34 33 32 30 30 30 30 29 26 25 25 24 24 22 21 19 18 17 16 16 14 14 14 14 14 13 13 14 14 14 14 14 13 13 12 11 11 10 10 10 12 14 15
8 6 6 6 5 9 9 4 6 3 3 8 9 8 10 15 17 17 23 23 19 24 25 27 32 33 34 37 38 42 44 44 41 42 43 41 41 41 40 39 38 38 37 36 36 35 35 35 36 37 36 36 36 35 35 34 34 33 32 31 30 29 28 27 26 25 24 22 21 20 19 19 17 17 16 15 15 15 15 15 15 15 14 14 13 14 14 14 13 12 12 11 11 12 12 14 15
7 6 5 7 5 5 9 6 6 4 3 6 6 8 10 13 16 17 21 22 23 32 35 34 37 34 34 37 39 42 41 39 38 42 44 43 43 43 42 42 41 40 39 38 37 35 35 35 35 36 36 38 37 37 36 35 35 33 32 31 30 29 28 27 26 25 23 22 21 21 20 20 19 18 17 16 16 16 17 16 16 15 15 14 14 15 15 14 13 12 12 11 12 12 13 14 14
5 5 4 8 6 2 6 5 3 3 4 5 6 6 4 5 9 13 21 27 27 34 37 36 39 40 41 44 44 44 42 40 41 43 45 45 44 44 45 45 44 43 41 40 39 38 37 36 36 35 36 38 38 38 38 36 34 34 33 31 29 28 27 26 25 25 25 24 23 22 21 21 20 19 18 17 17 17 17 17 16 16 15 14 14 15 15 13 13 12 12 12 13 13 13 13 12
7 7 7 10 8 5 6 4 6 5 4 1 5 3 0 5 9 10 16 21 20 25 29 29 34 39 42 43 44 45 46 46 46 47 47 47 47 47 48 48 47 46 45 44 42 41 40 39 37 36 36 37 38 39 38 37 35 35 34 32 30 29 28 27 28 29 28 27 25 24 23 22 20 19 19 18 18 18 18 18 17 16 16 15 15 15 14 13 13 13 12 13 13 14 14 14 14
8 9 11 13 9 5 5 3 6 5 6 3 5 3 4 6 13 13 11 13 14 17 21 25 31 34 34 36 39 42 44 46 48 50 50 49 49 50 50 50 49 49 48 46 44 43 42 41 39 37 36 36 37 37 38 38 37 37 37 36 34 33 32 32 32 32 30 28 27 25 23 22 21 20 20 19 19 19 19 19 18 17 16 16 15 15 14 15 14 13 13 14 14 14 14 15 15
8 9 9 10 6 5 6 3 2 2 5 5 3 4 5 5 11 14 12 14 17 16 16 22 29 32 34 36 38 41 43 44 46 47 50 51 52 52 51 51 52 51 50 48 47 46 44 43 41 39 38 37 36 36 36 38 38 38 38 38 37 36 35 34 33 32 30 28 27 25 24 23 22 21 20 20 20 20 20 19 19 18 17 16 16 15 15 16 15 14 14 14 15 16 17 16 14
9 5 3 7 5 5 6 4 4 5 4 6 3 4 2 3 9 14 16 17 18 16 15 19 26 32 36 38 39 42 45 46 46 46 48 51 52 53 54 54 54 53 52 51 50 48 47 45 43 41 40 39 38 36 36 38 38 38 38 38 38 37 36 33 32 31 30 29 28 26 25 25 23 22 21 21 21 20 20 20 19 19 18 17 16 16 16 15 15 14 14 14 15 17 18 15 14
10 3 2 8 7 6 5 5 5 5 4 7 5 5 3 4 5 10 16 17 16 17 19 18 24 32 37 39 41 43 47 48 49 49 50 52 53 53 54 55 55 55 53 53 52 50 49 48 45 43 42 42 40 38 38 38 38 38 38 38 38 38 36 34 32 31 30 30 29 27 26 26 25 24 23 22 21 20 20 20 20 19 18 17 17 17 16 15 15 15 14 13 14 17 17 15 15
8 4 6 7 7 5 4 6 5 3 4 8 8 7 5 6 4 6 10 14 16 17 18 18 25 35 38 40 43 44 46 47 48 50 52 54 54 54 54 54 55 56 55 54 53 52 51 50 48 46 45 43 42 41 40 39 39 39 39 38 38 38 37 35 34 33 32 31 30 29 27 26 26 25 24 23 22 21 21 20 20 20 18 18 18 17 17 16 16 16 15 13 13 15 16 16 15
5 3 7 8 7 5 1 3 4 3 5 10 11 9 7 7 5 5 9 13 17 16 15 17 22 31 37 41 44 45 46 47 48 50 51 53 54 54 54 55 56 56 55 55 54 53 53 52 51 49 47 45 44 43 41 40 40 41 41 40 39 38 37 36 36 36 35 33 32 30 28 27 26 25 24 24 23 22 22 21 20 19 19 19 18 18 17 16 16 16 14 13 12 13 14 15 15
6 3 4 4 6 5 4 2 2 5 9 7 10 9 9 9 7 5 10 15 19 18 17 19 20 27 37 43 45 46 47 48 49 49 50 51 52 52 52 54 55 55 55 54 54 54 54 53 52 51 49 48 46 44 43 42 42 42 43 42 40 39 38 37 37 36 36 35 33 31 30 28 26 25 25 25 25 24 23 23 21 20 20 20 19 18 17 16 16 15 14 13 13 13 12 14 16
9 5 5 4 3 3 5 4 2 6 8 5 8 8 7 9 7 8 12 16 19 19 20 24 25 30 40 45 47 47 47 48 49 50 51 51 51 52 53 54 55 55 55 55 55 54 54 54 54 53 52 50 48 46 45 44 44 44 44 43 42 41 40 39 37 35 35 35 34 32 32 30 28 27 27 26 26 25 24 23 22 21 21 20 19 18 17 16 16 15 14 14 14 14 13 14 16
9 8 6 6 5 4 6 5 3 6 6 4 6 6 4 6 5 10 15 16 21 25 30 34 35 38 46 49 49 48 47 48 49 50 51 51 53 54 55 56 56 56 57 57 56 55 55 55 55 54 53 51 50 49 47 46 46 45 44 44 43 42 42 41 40 37 35 35 35 34 32 31 29 28 27 26 25 25 24 22 21 21 20 19 19 18 17 16 16 16 15 14 15 14 13 13 15
9 7 6 7 6 5 5 4 4 5 6 5 2 4 5 5 6 11 15 17 25 32 37 39 38 43 48 47 46 45 46 48 49 50 51 53 55 56 56 57 57 58 58 58 58 57 56 56 56 56 55 53 52 51 49 48 47 46 45 45 44 43 42 42 41 39 36 35 35 35 33 32 30 29 27 25 25 25 24 22 21 20 19 19 20 19 17 16 16 17 16 15 16 15 14 13 15
7 6 6 8 7 5 4 4 5 3 4 4 2 3 5 5 5 8 13 16 21 27 32 33 33 36 38 35 37 42 45 47 49 50 51 53 55 56 57 57 57 58 58 58 58 58 58 57 56 56 56 55 54 52 51 49 48 47 46 46 45 44 43 42 41 40 38 36 36 36 34 32 30 29 27 26 25 25 24 23 22 21 20 20 20 19 18 17 18 18 18 17 17 17 16 15 15
3 5 8 8 7 7 6 5 4 2 4 5 3 4 4 3 5 5 9 13 15 18 22 24 27 30 29 30 35 41 45 47 49 51 53 54 55 56 57 57 57 57 58 58 59 60 59 58 57 57 56 56 55 54 52 50 49 48 47 47 46 45 44 43 41 40 39 37 37 37 36 33 31 30 28 27 26 25 24 24 23 22 21 21 21 19 18 18 20 20 19 19 19 18 17 17 17
5 5 8 3 3 6 5 3 5 5 6 5 2 5 5 3 5 4 6 10 12 14 15 18 22 23 25 30 37 43 47 50 50 52 54 55 56 56 57 58 58 58 59 59 60 60 60 59 58 58 57 57 56 55 53 52 50 49 48 47 47 46 45 43 42 39 38 38 38 38 38 36 34 31 30 28 28 27 25 25 25 24 23 22 21 20 19 20 22 21 20 20 20 19 19 18 18
8 5 7 6 3 6 4 3 6 6 6 6 3 5 5 5 5 4 7 10 11 12 13 15 17 17 22 30 37 43 47 47 47 49 52 55 56 56 57 58 58 58 59 60 60 60 59 59 59 58 58 57 56 55 54 53 52 50 48 47 46 46 45 43 42 40 39 38 39 39 39 38 36 33 32 30 29 28 27 26 26 25 24 23 22 21 20 21 23 23 22 22 21 22 22 20 19
6 2 5 5 4 6 6 4 4 4 5 5 3 4 5 6 6 7 10 11 12 13 13 13 15 18 24 30 35 41 44 44 47 50 52 55 57 57 58 59 59 59 59 59 58 58 58 59 59 59 58 57 56 56 55 54 53 52 50 47 46 46 45 44 42 41 40 39 39 39 40 40 38 36 34 32 31 30 28 28 28 27 26 25 24 23 21 21 23 24 24 23 23 23 23 22 20
6 5 6 6 3 3 5 4 3 4 5 3 3 6 7 5 5 9 11 11 12 13 13 14 16 23 30 34 37 41 43 46 49 51 53 56 57 57 58 59 59 59 58 57 56 56 58 58 58 58 58 57 57 57 56 55 54 52 51 49 47 46 45 45 43 42 41 40 40 40 40 41 40 38 36 34 33 32 30 29 29 28 28 26 26 25 23 23 24 25 25 24 23 24 24 23 22
10 7 7 8 5 3 4 5 2 3 5 5 5 8 9 5 5 8 10 11 11 13 14 13 16 26 34 38 41 42 44 48 50 51 53 55 57 57 57 58 57 55 54 54 54 55 56 57 58 58 57 58 58 58 57 56 53 52 51 49 47 45 45 45 44 43 41 40 40 40 40 41 42 41 38 36 34 33 31 30 30 30 29 28 27 27 25 24 24 25 25 25 24 24 24 24 25
Wind_Direction
159 155 159 164 170 167 178 187 165 134 173 283 239 257 216 168 3 308 267 155 55 187 172 142 154 157 148 148 137 105 77 130 158 137 169 146 146 153 152 153 157 155 154 154 153 149 145 143 144 145 145 144 141 139 139 139 139 138 137 137 138 139 140 140 139 137 136 133 129 124 120 119 118 118 114 106 100 96 94 91 87 84 81 80 80 81 83 88 92 93 94 99 101 98 98 100 104
160 155 155 159 169 171 184 176 231 330 100 309 258 225 163 84 20 257 226 202 252 170 168 148 148 145 122 134 127 105 65 31 146 130 130 141 147 153 153 154 157 157 156 156 156 152 147 147 148 148 146 145 143 142 142 141 139 139 139 139 140 141 141 139 137 135 132 128 125 124 123 122 122 120 111 101 96 94 93 88 84 81 80 79 78 81 83 86 89 92 93 95 97 96 97 101 102
155 154 156 161 169 190 201 171 231 175 106 292 274 254 137 128 228 242 230 223 164 150 154 143 139 126 118 125 115 114 74 40 139 132 132 148 153 154 155 155 157 157 157 157 158 154 150 150 151 150 149 148 147 146 145 144 142 142 141 141 143 142 141 138 135 132 127 126 126 127 125 126 126 119 109 100 95 92 89 85 83 81 80 79 78 80 82 84 85 89 93 95 95 93 95 100 99
151 158 167 167 168 206 203 176 210 149 189 239 269 259 183 191 220 240 201 145 134 139 140 135 129 119 120 114 106 101 107 129 143 138 142 156 157 154 156 155 157 157 157 157 158 155 153 153 154 153 151 151 150 149 149 147 145 145 145 145 146 143 141 138 135 130 126 127 130 129 129 129 125 119 112 103 94 90 87 85 83 80 78 77 77 79 79 78 77 80 86 93 95 96 98 98 94
153 156 170 176 165 297 175 246 197 148 226 199 232 243 203 186 167 136 112 121 132 136 136 133 114 106 106 101 112 118 144 148 150 148 149 158 158 154 156 157 158 158 158 158 157 157 156 155 156 155 153 153 153 152 152 150 149 148 148 148 147 145 142 140 135 130 128 130 132 131 131 128 124 123 117 106 95 89 87 83 78 74 72 77 80 78 77 73 70 71 76 87 92 97 98 93 91
160 156 174 208 254 304 227 260 217 212 240 183 188 234 182 159 146 129 118 120 125 132 135 127 119 118 96 74 79 133 150 154 155 155 152 156 159 156 156 159 160 160 159 158 158 158 156 157 157 157 155 156 155 155 155 153 152 151 150 150 149 147 145 143 138 134 132 133 134 133 133 130 128 126 120 111 98 89 87 81 74 70 70 77 82 79 79 75 71 71 75 85 91 96 95 93 94
166 159 177 220 276 272 242 252 228 245 247 182 189 236 157 156 156 140 130 125 112 118 125 122 126 117 90 99 101 117 154 169 157 154 153 155 159 158 157 160 162 162 160 159 159 158 156 158 158 158 158 158 158 157 157 156 156 154 154 154 152 152 151 147 142 138 137 137 137 136 136 133 131 130 126 118 102 91 87 82 74 71 73 77 81 82 82 79 76 75 78 85 94 100 100 99 99
173 167 175 187 291 221 236 259 247 231 237 199 182 227 158 159 159 144 137 133 121 122 125 131 130 108 89 121 104 123 173 168 156 153 154 156 159 160 159 161 164 163 162 161 159 157 156 159 159 159 160 160 161 161 161 160 159 158 157 158 158 158 156 151 146 143 143 143 141 141 142 138 135 136 133 124 105 93 89 82 76 73 78 82 84 85 85 82 80 80 82 86 93 101 106 107 107
181 186 158 182 243 287 268 274 264 223 243 232 175 203 157 155 154 140 136 128 132 132 132 141 133 113 115 107 103 146 160 162 156 153 155 157 160 160 161 163 164 164 163 161 160 158 158 160 160 161 162 162 163 164 164 164 163 162 162 162 163 164 161 156 151 149 150 149 148 148 146 142 143 144 138 128 106 94 90 81 76 75 80 87 88 86 86 86 85 84 85 88 91 97 103 104 105
181 196 202 265 212 323 283 269 258 239 249 223 180 189 153 151 152 141 137 129 138 134 136 142 126 120 121 104 107 156 163 163 157 155 158 159 161 161 162 165 165 164 163 162 162 160 158 160 162 162 164 164 165 166 167 168 167 167 168 169 170 171 168 163 159 157 157 156 156 154 149 148 151 149 141 129 107 96 91 81 76 76 82 89 90 87 87 89 90 90 89 91 92 95 97 98 99
166 201 238 295 202 270 254 264 248 260 256 222 203 184 159 154 149 138 134 131 142 133 136 137 118 120 115 102 116 158 165 162 159 157 159 159 160 161 162 165 165 164 163 163 162 161 158 160 163 164 165 164 166 168 170 172 172 174 176 177 179 180 177 171 167 166 165 163 164 159 155 156 157 152 144 131 109 99 93 82 76 77 84 90 91 88 88 91 94 96 96 96 96 97 96 96 96
155 194 188 173 210 218 226 257 254 269 263 210 199 171 157 155 148 144 142 139 144 135 142 142 137 130 108 101 133 156 164 161 161 156 158 160 160 161 163 164 165 166 164 164 162 161 160 161 164 166 166 166 167 169 171 173 176 180 181 184 186 187 185 179 175 172 171 171 171 164 163 164 161 153 143 133 114 104 94 83 77 78 88 92 93 91 89 93 98 100 99 98 96 95 94 94 95
183 169 153 224 208 197 244 257 265 283 271 205 157 154 153 155 154 153 145 141 146 142 163 155 144 133 102 125 143 158 163 164 163 158 159 160 161 163 164 165 166 167 167 165 163 162 162 162 165 169 168 167 169 170 172 173 177 180 182 186 188 190 188 184 180 176 176 178 176 171 170 169 163 156 145 137 119 108 95 86 82 83 93 97 98 93 90 94 100 103 100 97 90 86 86 89 93
194 184 175 262 231 221 244 245 276 273 266 180 131 148 154 157 156 152 141 137 152 156 166 159 146 128 117 133 149 165 167 168 165 160 161 160 163 165 166 168 168 169 169 169 166 165 166 165 168 171 170 171 171 171 174 176 177 180 182 184 186 189 187 183 182 180 181 183 182 178 177 174 168 161 151 142 126 114 103 95 90 91 100 103 103 96 90 93 101 105 102 96 88 85 85 86 88
201 209 206 270 294 271 243 231 252 195 232 136 138 150 146 151 155 151 148 144 161 165 150 155 153 133 154 159 168 173 170 169 166 163 162 162 164 164 167 168 169 171 171 171 170 170 170 170 172 173 174 175 175 176 180 180 181 182 182 183 184 185 184 184 184 186 187 186 186 183 182 179 175 168 155 146 134 122 112 103 97 98 108 110 110 101 93 95 103 108 104 96 89 87 86 87 85
209 226 322 284 267 261 250 226 209 158 189 141 145 147 124 138 153 151 159 150 141 157 149 159 165 169 173 172 172 171 169 167 165 164 163 165 166 165 167 168 169 172 173 174 174 174 174 174 175 176 178 179 181 183 185 183 184 184 183 184 184 184 185 187 188 190 191 189 188 186 187 186 179 170 158 151 141 128 119 112 108 109 118 121 119 113 105 104 108 111 105 95 88 81 77 81 82
212 222 303 276 255 236 232 215 188 138 162 147 147 145 126 142 155 150 165 153 145 154 157 165 178 209 171 172 169 166 166 166 164 163 164 168 170 168 171 171 172 173 174 176 176 178 178 177 179 180 181 183 185 186 187 186 185 186 185 186 187 189 189 189 190 192 193 191 190 189 190 186 177 168 159 156 145 132 126 121 124 125 127 130 130 128 120 113 113 113 107 97 93 83 69 71 77
202 195 200 242 249 223 214 209 188 136 152 154 155 152 141 151 153 145 152 143 146 150 154 166 176 168 164 166 164 163 164 163 164 166 167 173 174 172 174 175 175 176 175 177 179 180 180 181 182 183 185 186 187 188 189 188 186 187 188 189 191 191 190 191 193 193 194 194 193 191 188 182 175 168 162 158 150 139 133 129 132 134 131 133 137 137 127 119 117 113 107 99 97 92 80 68 74
202 185 198 227 228 219 215 203 182 116 152 160 161 159 147 151 153 147 146 138 146 140 139 153 137 142 155 160 162 164 163 164 169 172 172 177 177 174 177 178 178 179 178 178 180 182 184 184 185 186 187 187 189 190 190 189 189 189 190 192 192 192 192 193 195 196 195 196 195 190 183 179 174 169 167 162 159 154 146 140 133 134 135 135 140 139 130 123 113 105 101 95 92 94 97 86 87
206 207 243 241 236 249 257 239 225 126 151 163 162 161 146 149 156 152 146 148 159 153 149 152 143 148 155 159 162 163 164 169 174 176 178 182 181 178 180 180 181 182 181 181 181 184 186 186 187 188 189 189 189 190 190 190 190 191 191 192 193 193 194 195 197 197 195 195 193 188 181 177 174 172 174 173 170 169 160 146 134 135 142 141 142 141 138 135 120 107 100 99 95 92 107 108 108
194 204 227 241 230 253 268 256 253 155 161 168 160 154 146 154 158 153 146 144 174 188 174 169 163 160 159 161 164 165 168 174 176 179 182 184 185 183 184 183 183 184 183 183 184 185 187 187 188 187 189 189 188 189 188 190 192 192 192 192 195 195 196 196 195 195 193 192 190 186 182 178 176 177 182 186 179 173 165 150 140 141 147 148 151 154 152 149 141 132 114 105 104 96 109 119 123
206 223 230 247 260 266 276 259 188 190 170 166 161 157 156 159 162 160 155 155 189 194 188 178 171 167 165 166 167 169 173 176 178 182 184 187 187 185 187 185 184 186 186 187 187 187 188 188 189 188 189 189 188 189 188 191 193 194 193 193 195 196 197 196 193 193 190 189 189 186 184 181 179 180 187 193 185 175 171 160 151 149 154 159 165 170 170 171 171 153 125 110 109 118 145 149 147
240 255 241 255 260 260 274 267 237 175 168 170 174 164 157 158 173 173 169 179 190 188 185 178 174 172 168 167 169 172 176 179 182 185 187 189 187 187 187 187 187 187 188 189 188 188 188 189 190 190 190 190 190 191 191 194 196 197 196 194 195 195 195 195 193 191 188 188 189 187 185 184 183 182 185 190 183 178 179 174 163 159 161 165 170 176 181 194 205 123 98 111 114 152 194 188 167
234 266 258 262 263 260 270 272 281 191 178 188 175 160 160 168 179 180 185 205 185 180 178 176 172 170 167 168 172 175 178 182 185 187 191 191 190 190 188 189 190 189 190 190 190 190 190 191 192 194 193 193 193 193 195 197 198 198 197 197 195 194 195 194 193 191 190 190 190 189 187 187 188 187 187 186 181 181 185 184 178 172 170 171 176 181 189 212 241 18 86 115 119 171 199 197 181
231 253 264 270 267 263 268 271 274 228 194 196 173 165 176 179 173 176 195 192 171 171 172 171 167 167 169 171 174 176 180 182 185 187 191 193 194 194 192 193 192 192 193 191 192 193 193 194 194 197 196 196 196 196 197 198 199 199 199 198 194 195 196 195 195 194 193 193 192 193 191 190 190 191 192 191 186 185 190 195 192 187 184 186 191 195 206 228 255 287 97 115 116 216 206 192 193
228 241 261 271 268 266 268 268 265 225 194 194 177 181 185 181 169 168 185 169 164 166 166 167 166 168 172 174 176 178 181 183 185 188 190 194 195 197 196 195 195 196 195 194 195 194 194 196 196 198 197 197 197 198 199 199 200 200 199 198 195 196 196 195 197 198 197 196 195 195 197 196 192 193 196 197 193 190 195 199 198 200 202 202 206 214 229 242 251 266 278 328 326 228 208 193 204
238 242 255 258 264 269 268 269 266 232 187 188 185 190 185 175 167 164 173 164 163 162 162 166 167 170 174 177 179 180 183 184 186 188 190 193 195 199 199 198 199 198 197 197 197 196 195 197 198 198 198 199 199 200 201 200 201 201 199 198 197 198 197 198 199 200 201 201 197 197 202 200 198 199 198 200 200 200 201 201 205 211 215 217 222 229 239 248 255 271 277 291 294 221 206 201 214
259 258 260 257 260 266 265 267 261 242 188 193 183 169 175 174 182 184 167 165 166 162 162 168 170 174 177 178 181 182 185 186 188 189 191 194 197 200 200 200 201 200 200 201 199 199 197 198 199 199 199 199 200 202 202 201 202 200 199 198 198 198 198 200 201 202 204 204 200 200 205 205 205 206 203 204 207 212 210 206 214 218 223 230 234 239 243 252 257 270 277 280 281 226 205 207 219
267 265 264 268 266 262 259 262 257 242 194 192 167 118 176 188 210 184 167 166 167 164 164 170 173 177 178 179 182 184 187 188 190 193 195 197 199 202 202 202 202 201 203 203 203 202 200 201 200 200 201 201 201 202 202 203 202 199 199 199 199 199 200 201 202 204 205 205 204 203 207 209 211 213 213 213 213 219 219 217 224 224 231 237 241 249 251 257 262 269 276 275 271 237 214 215 224
283 267 245 271 305 275 246 249 256 247 192 180 160 138 204 205 214 179 168 166 163 163 167 171 175 178 179 181 184 187 189 190 193 196 198 199 201 203 202 202 203 204 204 204 206 205 203 203 202 202 202 202 202 202 204 204 202 200 199 199 200 201 202 203 204 205 206 205 206 208 209 210 214 218 222 223 221 225 226 228 235 234 238 243 247 255 258 262 267 271 274 269 258 241 228 225 229
287 265 246 250 272 275 254 237 245 249 198 175 170 214 208 211 205 175 170 168 164 165 170 173 176 179 181 182 185 189 191 193 196 198 199 201 203 204 204 203 204 205 206 206 207 206 204 204 204 204 203 203 203 203 205 204 203 202 200 200 201 202 204 205 205 206 205 205 208 212 212 211 215 221 225 228 228 231 235 241 246 245 245 249 254 259 262 265 270 272 272 265 250 243 237 233 236
275 246 268 265 220 267 283 262 205 223 205 173 176 232 213 215 190 174 173 171 167 167 171 175 178 180 183 184 186 190 193 196 197 198 200 201 204 205 205 205 204 206 207 207 207 207 205 205 206 205 204 204 203 205 206 205 205 204 202 202 202 204 206 207 207 206 206 206 209 212 212 215 218 223 226 230 233 236 242 249 252 253 255 256 259 261 264 266 270 270 269 262 251 250 241 235 240
291 215 245 252 225 270 295 297 213 204 195 176 185 198 212 216 176 176 176 173 170 168 172 176 179 183 184 186 188 189 192 195 197 200 201 202 205 207 207 207 207 207 208 208 208 207 206 206 207 207 207 205 205 206 206 206 206 205 204 204 204 206 208 210 209 208 208 208 211 213 214 218 222 225 228 232 238 241 247 251 252 256 258 258 259 261 265 266 268 267 263 258 252 252 243 234 238
280 236 246 246 228 260 275 306 282 195 176 186 193 181 199 181 165 176 178 175 173 171 175 178 181 184 186 188 189 190 192 194 197 200 202 204 206 208 210 211 211 211 210 210 209 208 207 207 208 208 208 207 207 207 206 206 207 207 206 205 208 209 210 212 211 212 213 213 215 215 217 222 225 229 233 238 242 244 248 250 251 254 254 255 257 260 264 263 264 263 256 252 248 248 242 232 231
230 222 246 275 252 260 247 276 308 174 176 190 187 189 208 171 161 176 180 178 176 178 179 180 182 185 187 189 190 192 194 196 199 200 202 204 206 210 212 213 213 213 214 212 211 211 209 209 210 210 210 209 209 209 208 207 208 209 207 207 210 213 213 213 214 218 218 219 221 220 222 226 230 235 239 243 245 245 247 248 249 251 253 255 258 260 262 261 261 260 253 247 245 242 235 228 224
222 210 212 241 252 263 241 253 280 196 195 202 191 197 192 167 170 178 181 181 182 183 181 181 184 186 188 191 193 194 197 201 202 200 201 204 207 210 212 214 215 215 217 216 215 214 212 212 212 212 212 211 210 210 209 208 209 209 208 208 211 214 215 214 216 220 221 223 224 224 226 230 236 240 243 245 244 243 244 246 248 250 253 255 258 260 259 259 260 259 251 247 246 236 225 223 222
241 234 236 241 247 266 252 248 278 232 189 219 207 196 186 176 179 180 179 181 184 184 184 186 187 188 190 192 195 196 199 204 203 201 201 204 207 210 212 214 216 216 218 219 218 218 216 215 215 214 214 213 212 211 210 208 208 208 208 210 213 214 215 215 217 220 221 222 223 225 228 232 238 240 242 242 240 240 240 243 246 249 253 256 260 260 256 257 259 258 251 246 240 223 214 218 223
244 240 252 261 238 260 267 248 273 259 175 241 216 183 198 187 180 179 176 180 187 187 187 189 190 191 193 194 196 198 202 205 203 201 202 203 207 209 212 214 215 216 218 219 220 219 219 219 218 218 216 215 214 213 213 210 209 210 211 212 214 216 216 217 220 221 222 223 224 227 229 232 235 235 237 238 238 239 240 243 247 250 254 258 260 255 252 255 258 257 252 243 229 212 208 218 228
243 237 243 266 240 265 284 256 246 232 186 246 209 181 215 198 180 179 179 185 191 192 191 190 190 191 194 197 197 199 201 202 202 202 202 203 206 208 211 213 216 218 219 221 221 220 220 220 221 221 220 218 216 215 215 214 212 212 215 216 217 218 219 221 224 226 226 226 227 228 229 231 231 232 234 235 237 238 242 247 250 253 256 258 256 250 250 255 255 254 246 233 220 212 215 224 229
238 232 225 256 238 182 274 273 296 263 217 217 184 180 219 190 186 189 190 192 192 195 197 194 192 192 195 198 198 198 198 199 200 202 202 203 205 208 210 213 216 217 218 220 220 220 221 221 221 221 222 221 218 215 216 216 215 215 217 220 221 222 223 224 227 229 229 228 228 228 228 228 229 232 234 236 237 238 242 247 251 254 257 258 253 249 251 253 252 248 237 226 219 221 227 223 211
247 238 223 248 244 199 234 284 348 320 283 217 128 121 100 167 191 206 200 200 198 198 200 201 201 199 199 199 199 199 198 198 199 200 201 203 204 207 211 213 214 215 217 219 220 221 222 222 222 222 222 222 220 217 216 217 217 217 218 219 221 224 225 226 227 227 226 226 226 226 226 226 227 230 232 234 236 238 242 246 251 254 256 255 252 250 250 247 245 240 233 230 228 230 227 211 197
262 246 228 241 249 231 245 314 359 338 304 294 131 153 265 193 194 205 198 200 207 203 200 205 207 205 206 204 202 201 201 201 201 200 201 202 205 208 211 212 213 214 217 221 222 223 223 223 222 222 223 223 222 220 217 216 217 218 218 218 219 220 221 223 224 224 223 223 225 225 226 227 227 228 230 233 235 238 242 245 249 253 253 251 249 248 244 241 240 236 234 235 232 228 217 204 198
257 244 234 248 242 226 247 278 333 284 272 276 177 185 253 214 198 205 196 198 205 202 203 209 207 206 208 207 205 203 202 203 204 203 202 202 205 207 209 211 213 215 219 222 223 223 223 223 222 222 223 224 224 222 218 216 216 218 220 221 222 221 222 222 223 225 225 226 227 228 228 229 229 231 232 234 236 238 241 245 248 251 250 246 245 244 241 240 239 235 235 235 232 222 209 204 200
245 237 255 274 255 225 231 206 215 237 260 288 254 177 226 232 206 202 195 201 207 203 206 210 209 209 209 209 208 205 204 204 204 205 203 203 205 206 209 211 213 217 219 220 220 222 223 223 224 224 224 224 223 222 220 217 216 217 220 223 225 226 227 226 225 225 227 229 231 231 231 232 234 235 235 235 236 237 240 243 246 248 245 241 242 242 241 240 236 232 231 228 223 215 210 208 202
244 222 238 264 259 242 215 185 218 236 250 273 244 175 210 274 238 203 194 198 205 207 210 209 209 210 210 211 211 208 207 206 205 206 205 205 206 208 210 212 214 217 218 218 219 222 222 222 223 224 225 225 223 221 221 221 220 220 221 222 225 228 230 230 230 229 229 230 232 232 233 235 237 238 237 235 233 235 240 242 245 246 242 240 242 242 239 237 233 231 229 221 212 209 211 212 207
235 214 244 267 272 257 202 183 212 219 215 246 238 188 204 265 257 193 191 199 204 208 211 210 209 210 210 211 212 211 209 208 208 208 207 207 208 210 212 213 215 217 217 218 220 220 221 221 221 223 224 225 225 223 222 222 222 222 224 224 226 228 230 231 233 233 232 232 232 233 234 235 237 236 235 233 231 235 239 241 243 242 240 241 242 241 238 232 228 228 224 214 207 208 213 215 213
208 185 240 268 281 288 301 167 165 199 234 239 233 199 189 247 255 186 188 200 201 204 210 213 212 212 212 213 213 212 210 209 210 210 210 210 211 211 212 213 215 216 216 217 218 218 219 219 220 222 223 225 226 225 224 224 223 223 225 228 228 229 230 231 232 232 233 232 232 232 232 232 232 232 231 230 230 233 238 240 240 238 238 240 240 240 238 230 225 224 216 207 207 211 215 221 223
207 169 191 244 286 305 309 307 132 221 242 234 229 211 191 228 250 207 199 199 198 201 205 208 211 211 212 214 214 212 211 210 210 210 211 211 211 212 211 213 214 215 214 215 216 217 217 218 220 221 222 223 225 226 226 225 225 224 226 229 231 232 232 232 233 232 232 230 229 229 229 229 227 226 226 227 229 231 235 239 238 236 236 236 237 239 234 225 221 220 214 209 212 215 217 225 231
205 187 158 181 249 263 246 246 226 238 246 229 212 205 205 232 236 206 203 199 199 204 206 207 207 208 211 213 213 212 211 211 210 211 211 211 211 211 211 213 214 214 214 215 216 216 217 218 219 220 222 223 224 226 227 227 226 226 227 229 231 233 234 235 236 235 233 231 228 227 228 227 224 222 224 227 229 230 234 238 238 235 234 233 234 236 229 220 218 217 214 213 217 218 220 226 232
198 193 173 182 202 212 222 233 254 251 258 247 197 180 221 261 240 203 201 200 201 204 209 211 209 207 210 212 211 210 210 211 211 211 211 211 211 211 212 213 214 214 215 215 216 216 216 217 218 220 221 223 224 225 227 228 228 228 229 230 231 233 234 235 237 237 235 233 230 228 228 227 226 225 227 231 232 232 235 239 239 234 232 231 231 230 225 220 219 217 214 214 218 220 222 230 235
205 191 168 195 201 192 204 206 226 248 263 264 196 169 202 223 225 202 195 201 203 204 209 212 212 212 212 212 209 208 209 210 212 212 212 213 213 213 213 213 214 215 215 215 215 216 216 217 217 218 220 221 223 224 226 227 229 230 230 231 232 233 234 236 237 237 237 236 233 230 229 227 228 230 232 235 236 236 238 238 236 232 230 229 229 227 223 221 221 217 213 216 222 223 225 232 239
211 162 162 211 197 171 213 210 189 203 265 257 212 209 215 217 248 218 195 202 204 205 209 210 214 216 214 212 208 208 210 211 211 212 213 214 215 214 214 214 215 215 215 215 215 215 216 217 217 218 219 221 222 224 226 227 229 230 231 232 233 234 235 235 236 238 238 237 236 233 231 230 230 232 234 236 237 238 239 238 234 230 229 229 228 226 224 224 225 220 216 218 223 225 226 231 238
177 159 192 209 173 174 224 238 212 192 264 256 205 238 270 277 277 247 199 203 204 206 209 209 214 213 208 207 208 209 211 211 211 212 213 215 216 216 215 215 215 215 215 215 215 216 217 217 218 219 219 220 222 224 226 227 228 230 231 232 233 234 234 234 235 237 237 237 236 235 233 233 233 233 234 235 236 238 239 239 236 232 230 230 228 226 226 228 229 226 222 222 224 225 226 230 237
148 189 197 159 140 205 205 218 237 231 251 265 217 228 246 222 254 256 189 200 210 210 210 212 214 208 203 206 208 210 212 212 212 213 214 216 217 217 216 216 217 217 217 217 217 218 217 218 219 219 218 219 221 224 226 227 228 229 231 232 233 233 234 234 236 236 237 236 236 234 233 234 234 234 235 235 236 237 238 239 238 234 232 231 229 226 226 229 231 231 228 226 226 227 229 231 234
202 195 172 145 178 217 187 184 222 215 238 271 278 253 233 202 224 224 192 202 210 211 213 215 215 206 204 208 208 211 213 212 212 213 214 216 217 218 217 218 218 218 219 220 219 217 217 218 219 220 221 221 223 224 225 227 228 229 231 232 233 234 233 234 235 236 236 235 234 233 233 234 234 234 235 236 236 236 238 239 238 236 234 232 230 228 227 228 231 231 230 228 228 229 231 232 232
229 159 166 178 178 193 192 186 193 192 226 259 278 264 237 217 207 189 195 208 206 207 210 213 217 211 208 209 210 211 212 211 212 213 214 216 218 219 219 219 219 219 220 220 218 217 216 218 218 219 221 221 222 223 224 226 227 228 230 231 233 233 233 233 234 235 235 233 232 232 232 233 234 234 235 235 236 236 238 239 238 236 235 233 231 229 228 229 231 232 231 230 230 231 234 234 234
215 193 193 204 191 183 201 199 171 169 190 209 235 253 250 240 205 183 191 206 206 205 206 209 215 212 210 211 211 211 211 211 212 213 213 215 218 219 220 220 221 220 220 219 217 217 217 217 218 219 219 219 220 222 223 225 227 228 230 231 232 233 233 233 233 234 234 232 231 231 232 234 234 235 236 235 236 237 238 239 238 236 236 234 232 231 230 231 231 233 233 232 233 234 237 238 237
203 205 202 203 189 138 179 219 216 169 188 186 200 249 260 247 203 188 192 202 207 206 206 212 216 212 212 214 213 212 211 211 212 212 213 215 217 219 219 220 220 219 218 217 217 217 217 217 218 219 219 219 221 222 223 225 227 229 230 231 232 232 233 233 233 234 234 231 230 230 231 233 234 235 236 236 237 237 238 240 238 237 237 236 234 233 233 233 233 234 234 234 235 235 237 239 239